sat.trackr.live / text

‹ back to catalog

STARLINK-1008

NORAD 44714 · 2019-074B

PAYLOAD ACTIVE UNKNOWN

§ Identity

Operator
Country
US
Launch date
2019-11-11
Launch site
AFETR
Launch vehicle
Mass (kg)
RCS (m²)

Purposes: comms

External: N2YO · Heavens-Above · Gunter

§ Orbital elements

Epoch: 2026-09-19T19:29:16.918368Z

Period
92.01 min
Inclination
53.1472°
Eccentricity
0.0002434
Mean motion
15.65019755 rev/d
Perigee alt
371.5 km
Apogee alt
374.8 km
Semi-major
6,751.3 km
B*
3.0397e-4
RAAN
330.3726°
Arg perigee
72.3186°
Mean anomaly
287.8096°
Rev number
37,896

§ Raw data

STARLINK-10081 44714U 19074B   26262.81200137  .00029995  00000+0  30397-3 0  99992 44714  53.1472 330.3726 0002434  72.3186 287.8096 15.65019755378965

JSON: /api/v1/satellites/44714 · /tle

For live sub-satellite position, see the globe view (requires WebGL).

§ Visibility from observer

Set your observer location to see the next 7 days of passes ≥ 10°. The values pass through the URL so the page stays shareable.

No JS? Fill the form by hand. The geolocation button needs JavaScript.